Home   Weather   Kalamaria   Past weeks

Flag for Greece Past Weather in Kalamaria, Greece — Yesterday and Last 2 Weeks

Now
61 °F

Passing clouds.


Feels Like: 61 °F
Forecast: 52 / 72 °F
Wind: 5 mph from Southeast

Location: Thessaloniki Airport

Current Time: Sep 26, 2016 at 10:11:26 PM

Latest Report: Sep 26, 2016 at 9:50 PM


Visibility: N/A

Pressure: 30.12 "Hg

Humidity: 77%

Dew Point: 54 °F

Location of KalamariaLocation

Past Weather in Kalamaria — Graph

°F

Kalamaria Temperature Yesterday

Maximum temperature yesterday: 75 °F (at 3:20 PM)
Minimum temperature yesterday: 57 °F (at 12:20 AM)
Average temperature yesterday: 65 °F

High & Low Weather Summary for the Past Weeks

 TemperatureHumidityPressure
High88 °F (Sep 15, 4:20 PM)100% (Sep 20, 7:20 AM)30.30 "Hg (Sep 20, 7:20 AM)
Low48 °F (Sep 23, 6:20 AM)23% (Sep 23, 1:50 PM)29.65 "Hg (Sep 20, 4:20 AM)
Average70 °F64%29.98 "Hg
* Reported Sep 11 8:20 PM — Sep 26 8:50 PM, Kalamaria, Weather by CustomWeather, © 2016

Note: Actual official high and low records may vary slightly from our data, if they occured in-between our weather recording intervals... More about our weather records

Advertising

Kalamaria Weather History for the Previous 24 Hours

Scroll right to see more
 ConditionsComfort  
Time TempWeatherWind HumidityBarometerVisibility
8:50 PM
Mon, Sep 26
63 °FPassing clouds.5 mph73%30.12 "HgN/A
8:20 PM63 °FPassing clouds.3 mph68%30.09 "HgN/A
7:50 PM66 °FPassing clouds.3 mph60%30.09 "HgN/A
7:20 PM68 °FPassing clouds.8 mph56%30.07 "HgN/A
6:50 PM70 °FPassing clouds.9 mph53%30.07 "HgN/A
6:20 PM70 °FPassing clouds.10 mph53%30.07 "HgN/A
5:50 PM72 °FPassing clouds.12 mph47%30.07 "HgN/A
5:20 PM73 °FPassing clouds.3 mph38%30.07 "HgN/A
4:50 PM73 °FPassing clouds.7 mph36%30.07 "HgN/A
4:20 PM73 °FPassing clouds.6 mph38%30.07 "HgN/A
3:50 PM73 °FPassing clouds.8 mph41%30.07 "HgN/A
3:20 PM72 °FPassing clouds.7 mph41%30.07 "HgN/A
2:50 PM73 °FPassing clouds.8 mph38%30.07 "HgN/A
2:20 PM73 °FPassing clouds.8 mph38%30.07 "HgN/A
1:50 PM72 °FPassing clouds.8 mph38%30.07 "HgN/A
1:20 PM72 °FPassing clouds.7 mph38%30.07 "HgN/A
12:50 PM72 °FPassing clouds.8 mph38%30.07 "HgN/A
12:20 PM72 °FPassing clouds.7 mph38%30.07 "HgN/A
11:50 AM70 °FScattered clouds.6 mph43%30.07 "HgN/A
11:20 AM68 °FScattered clouds.2 mph46%30.07 "HgN/A
10:50 AM70 °FScattered clouds.2 mph46%30.07 "HgN/A
10:20 AM64 °FScattered clouds.2 mph60%30.07 "HgN/A
9:50 AM63 °FScattered clouds.2 mph68%30.07 "HgN/A
9:20 AM61 °FScattered clouds.3 mph72%30.07 "HgN/A
8:50 AM61 °FScattered clouds.3 mph68%30.04 "HgN/A
8:20 AM59 °FScattered clouds.3 mph77%30.04 "HgN/A
7:50 AM57 °FScattered clouds.2 mph82%30.04 "HgN/A
7:20 AM57 °FScattered clouds.2 mph82%30.04 "HgN/A
6:50 AM57 °FPassing clouds.5 mph82%30.04 "HgN/A
6:20 AM55 °FPassing clouds.6 mph88%30.04 "HgN/A
5:50 AM55 °FPassing clouds.3 mph88%30.04 "HgN/A
5:20 AM55 °FPassing clouds.3 mph88%30.04 "HgN/A
4:50 AM55 °FPassing clouds.3 mph88%30.04 "HgN/A
4:20 AM55 °FPassing clouds.5 mph94%30.04 "HgN/A
3:50 AM55 °FPassing clouds.5 mph88%30.04 "HgN/A
3:20 AM54 °FPassing clouds.6 mph94%30.04 "HgN/A
2:50 AM55 °FPassing clouds.2 mph94%30.04 "HgN/A
2:20 AM55 °FPassing clouds.3 mph88%30.04 "HgN/A
1:50 AM55 °FPassing clouds.3 mph88%30.04 "HgN/A
1:20 AM57 °FPassing clouds.6 mph82%30.04 "HgN/A
12:50 AM57 °FPassing clouds.6 mph88%30.04 "HgN/A
12:20 AM57 °FPassing clouds.3 mph88%30.04 "HgN/A
11:50 PM
Sun, Sep 25
59 °FPassing clouds.3 mph82%30.04 "HgN/A
11:20 PM59 °FPassing clouds.6 mph82%30.04 "HgN/A
10:50 PM59 °FPassing clouds.3 mph77%30.04 "HgN/A
10:20 PM59 °FPassing clouds.6 mph82%30.04 "HgN/A
Weather by CustomWeather, © 2016

See weather overviewHow to use our weather pages